| time (UTC) | temp C | wind direction | speed KPH | gust KPH | rain 1hr cm | rain 24hr cm | rain mn cm | humidity % | barometer mb |
| 20260508220149 | 17 | 286 | 14.5 | 17.7 | 0.00 | 0.00 | 0.00 | 31 | 1007.2 |
| 20260508215646 | 17 | 286 | 6.4 | 9.7 | 0.00 | 0.00 | 0.00 | 33 | 1007.2 |
| 20260508215143 | 17 | 274 | 6.4 | 14.5 | 0.00 | 0.00 | 0.00 | 34 | 1007.2 |
| 20260508214640 | 17 | 296 | 14.5 | 20.9 | 0.00 | 0.00 | 0.00 | 32 | 1007.4 |
| 20260508214137 | 17 | 271 | 11.3 | 16.1 | 0.00 | 0.00 | 0.00 | 32 | 1007.3 |
| 20260508213633 | 16 | 270 | 6.4 | 11.3 | 0.00 | 0.00 | 0.00 | 33 | 1007.5 |
| 20260508213129 | 17 | 266 | 6.4 | 11.3 | 0.00 | 0.00 | 0.00 | 30 | 1007.3 |
| 20260508212626 | 17 | 265 | 8.0 | 9.7 | 0.00 | 0.00 | 0.00 | 32 | 1007.5 |
| 20260508212123 | 17 | 304 | 11.3 | 14.5 | 0.00 | 0.00 | 0.00 | 33 | 1007.4 |
| 20260508211618 | 17 | 285 | 6.4 | 9.7 | 0.00 | 0.00 | 0.00 | 35 | 1007.3 |
| 20260508211115 | 17 | 125 | 3.2 | 9.7 | 0.00 | 0.00 | 0.00 | 33 | 1007.5 |
| 20260508210611 | 17 | 278 | 12.9 | 14.5 | 0.00 | 0.00 | 0.00 | 31 | 1007.6 |
| 20260508210109 | 17 | 305 | 9.7 | 12.9 | 0.00 | 0.00 | 0.00 | 34 | 1007.6 |
| 20260508205606 | 17 | 282 | 6.4 | 9.7 | 0.00 | 0.00 | 0.00 | 34 | 1007.5 |
| 20260508205102 | 17 | 276 | 8.0 | 16.1 | 0.00 | 0.00 | 0.00 | 33 | 1007.5 |
| 20260508204559 | 17 | 263 | 12.9 | 16.1 | 0.00 | 0.00 | 0.00 | 33 | 1007.8 |
| 20260508204055 | 17 | 279 | 3.2 | 6.4 | 0.00 | 0.00 | 0.00 | 34 | 1007.6 |
| 20260508203551 | 16 | 305 | 1.6 | 4.8 | 0.00 | 0.00 | 0.00 | 34 | 1007.6 |
| 20260508203047 | 16 | 297 | 3.2 | 12.9 | 0.00 | 0.00 | 0.00 | 36 | 1007.9 |
| 20260508202544 | 17 | 263 | 12.9 | 17.7 | 0.00 | 0.00 | 0.00 | 33 | 1008.0 |
| 20260508202041 | 17 | 219 | 4.8 | 6.4 | 0.00 | 0.00 | 0.00 | 34 | 1008.1 |
| 20260508201538 | 17 | 303 | 3.2 | 12.9 | 0.00 | 0.00 | 0.00 | 35 | 1007.9 |
| 20260508201034 | 17 | 144 | 1.6 | 4.8 | 0.00 | 0.00 | 0.00 | 32 | 1008.1 |
| 20260508200531 | 16 | 258 | 6.4 | 14.5 | 0.00 | 0.00 | 0.00 | 33 | 1008.2 |
| 20260508200027 | 17 | 288 | 14.5 | 16.1 | 0.00 | 0.00 | 0.00 | 34 | 1008.5 |
| 20260508195524 | 17 | 266 | 9.7 | 11.3 | 0.00 | 0.00 | 0.00 | 33 | 1008.5 |
| 20260508195020 | 16 | 343 | 1.6 | 9.7 | 0.00 | 0.00 | 0.00 | 33 | 1008.5 |
| 20260508194517 | 16 | 296 | 9.7 | 12.9 | 0.00 | 0.00 | 0.00 | 29 | 1008.7 |
| 20260508194015 | 16 | 219 | 9.7 | 12.9 | 0.00 | 0.00 | 0.00 | 31 | 1008.8 |
| 20260508193510 | 16 | 223 | 12.9 | 16.1 | 0.00 | 0.00 | 0.00 | 31 | 1009.1 |
| 20260508193008 | 16 | 312 | 1.6 | 4.8 | 0.00 | 0.00 | 0.00 | 30 | 1008.8 |
| 20260508192504 | 16 | 42 | 6.4 | 12.9 | 0.00 | 0.00 | 0.00 | 32 | 1009.0 |
| 20260508192001 | 16 | 263 | 4.8 | 9.7 | 0.00 | 0.00 | 0.00 | 31 | 1009.3 |
| 20260508191458 | 17 | 330 | 3.2 | 4.8 | 0.00 | 0.00 | 0.00 | 34 | 1009.0 |
| 20260508190955 | 16 | 22 | 0.0 | 3.2 | 0.00 | 0.00 | 0.00 | 33 | 1009.2 |
| 20260508190452 | 15 | 300 | 4.8 | 6.4 | 0.00 | 0.00 | 0.00 | 32 | 1009.3 |
| 20260508185948 | 15 | 281 | 9.7 | 12.9 | 0.00 | 0.00 | 0.00 | 31 | 1009.5 |
| 20260508185446 | 15 | 206 | 1.6 | 11.3 | 0.00 | 0.00 | 0.00 | 34 | 1009.4 |
| 20260508184943 | 15 | 267 | 12.9 | 14.5 | 0.00 | 0.00 | 0.00 | 33 | 1009.6 |
| 20260508184441 | 15 | 164 | 1.6 | 6.4 | 0.00 | 0.00 | 0.00 | 32 | 1009.6 |
| 20260508183937 | 16 | 215 | 8.0 | 17.7 | 0.00 | 0.00 | 0.00 | 37 | 1009.5 |
| 20260508183433 | 16 | 279 | 4.8 | 6.4 | 0.00 | 0.00 | 0.00 | 34 | 1009.6 |
| 20260508182928 | 15 | 204 | 1.6 | 9.7 | 0.00 | 0.00 | 0.00 | 34 | 1009.8 |
| 20260508182426 | 15 | 320 | 4.8 | 6.4 | 0.00 | 0.00 | 0.00 | 34 | 1009.7 |
| 20260508181920 | 15 | 290 | 8.0 | 11.3 | 0.00 | 0.00 | 0.00 | 34 | 1009.8 |
| 20260508181418 | 15 | 290 | 4.8 | 9.7 | 0.00 | 0.00 | 0.00 | 34 | 1009.8 |
| 20260508180915 | 15 | 277 | 4.8 | 4.8 | 0.00 | 0.00 | 0.00 | 35 | 1009.8 |
| 20260508180412 | 15 | 260 | 4.8 | 9.7 | 0.00 | 0.00 | 0.00 | 32 | 1010.0 |
| 20260508175908 | 15 | 258 | 3.2 | 12.9 | 0.00 | 0.00 | 0.00 | 35 | 1010.0 |
| 20260508175404 | 15 | 337 | 3.2 | 6.4 | 0.00 | 0.00 | 0.00 | 35 | 1010.1 |
| 20260508174903 | 15 | 273 | 9.7 | 14.5 | 0.00 | 0.00 | 0.00 | 34 | 1010.4 |
| 20260508174359 | 15 | 251 | 6.4 | 14.5 | 0.00 | 0.00 | 0.00 | 35 | 1010.2 |
| 20260508173856 | 15 | 276 | 8.0 | 16.1 | 0.00 | 0.00 | 0.00 | 34 | 1010.6 |
| 20260508173353 | 15 | 326 | 3.2 | 9.7 | 0.00 | 0.00 | 0.00 | 38 | 1010.4 |
| 20260508172849 | 14 | 290 | 8.0 | 11.3 | 0.00 | 0.00 | 0.00 | 35 | 1010.8 |
| 20260508172347 | 14 | 274 | 8.0 | 9.7 | 0.00 | 0.00 | 0.00 | 35 | 1010.7 |
| 20260508171842 | 14 | 245 | 8.0 | 11.3 | 0.00 | 0.00 | 0.00 | 37 | 1010.7 |
| 20260508171339 | 14 | 281 | 6.4 | 6.4 | 0.00 | 0.00 | 0.00 | 36 | 1011.1 |
| 20260508170836 | 13 | 274 | 6.4 | 11.3 | 0.00 | 0.00 | 0.00 | 34 | 1010.7 |
| 20260508170334 | 13 | 305 | 9.7 | 11.3 | 0.00 | 0.00 | 0.00 | 35 | 1010.9 |
| 20260508165830 | 13 | 282 | 14.5 | 22.5 | 0.00 | 0.00 | 0.00 | 35 | 1010.9 |
| 20260508165328 | 13 | 331 | 3.2 | 12.9 | 0.00 | 0.00 | 0.00 | 35 | 1010.9 |
| 20260508164823 | 13 | 280 | 9.7 | 11.3 | 0.00 | 0.00 | 0.00 | 37 | 1011.0 |
| 20260508164320 | 13 | 317 | 6.4 | 6.4 | 0.00 | 0.00 | 0.00 | 38 | 1011.1 |
| 20260508163819 | 13 | 316 | 3.2 | 9.7 | 0.00 | 0.00 | 0.00 | 37 | 1011.0 |
| 20260508163316 | 13 | 235 | 8.0 | 12.9 | 0.00 | 0.00 | 0.00 | 39 | 1011.3 |
| 20260508162811 | 13 | 277 | 14.5 | 16.1 | 0.00 | 0.00 | 0.00 | 36 | 1011.3 |
| 20260508162308 | 13 | 313 | 3.2 | 4.8 | 0.00 | 0.00 | 0.00 | 38 | 1011.3 |
| 20260508161806 | 13 | 269 | 9.7 | 14.5 | 0.00 | 0.00 | 0.00 | 35 | 1011.6 |
| 20260508161303 | 13 | 296 | 6.4 | 6.4 | 0.00 | 0.00 | 0.00 | 39 | 1011.4 |
| 20260508160800 | 13 | 307 | 4.8 | 6.4 | 0.00 | 0.00 | 0.00 | 40 | 1011.5 |
| 20260508160259 | 12 | 277 | 8.0 | 11.3 | 0.00 | 0.00 | 0.00 | 39 | 1011.6 |
| 20260508155755 | 12 | 309 | 12.9 | 14.5 | 0.00 | 0.00 | 0.00 | 39 | 1011.6 |
| 20260508155252 | 13 | 298 | 3.2 | 14.5 | 0.00 | 0.00 | 0.00 | 40 | 1011.8 |
| 20260508154748 | 13 | 292 | 9.7 | 12.9 | 0.00 | 0.00 | 0.00 | 42 | 1011.5 |
| 20260508154246 | 13 | 283 | 4.8 | 6.4 | 0.00 | 0.00 | 0.00 | 41 | 1011.7 |
| 20260508153742 | 12 | 343 | 1.6 | 6.4 | 0.00 | 0.00 | 0.00 | 42 | 1011.6 |
| 20260508153240 | 12 | 253 | 9.7 | 9.7 | 0.00 | 0.00 | 0.00 | 42 | 1011.9 |
| 20260508152736 | 12 | 330 | 6.4 | 9.7 | 0.00 | 0.00 | 0.00 | 43 | 1011.6 |
| 20260508152232 | 12 | 247 | 3.2 | 4.8 | 0.00 | 0.00 | 0.00 | 47 | 1011.8 |
| 20260508151728 | 12 | 341 | 1.6 | 3.2 | 0.00 | 0.00 | 0.00 | 47 | 1011.8 |
| 20260508151226 | 12 | 21 | 3.2 | 3.2 | 0.00 | 0.00 | 0.00 | 47 | 1011.9 |
| 20260508150722 | 11 | 351 | 0.0 | 1.6 | 0.00 | 0.00 | 0.00 | 51 | 1011.9 |
| 20260508150219 | 11 | 0 | 0.0 | 3.2 | 0.00 | 0.00 | 0.00 | 48 | 1012.1 |
| 20260508145715 | 11 | 302 | 1.6 | 6.4 | 0.00 | 0.00 | 0.00 | 50 | 1012.2 |
| 20260508145211 | 11 | 321 | 1.6 | 4.8 | 0.00 | 0.00 | 0.00 | 52 | 1012.2 |
| 20260508144709 | 11 | 7 | 1.6 | 1.6 | 0.00 | 0.00 | 0.00 | 52 | 1012.2 |
| 20260508144207 | 11 | 359 | 1.6 | 3.2 | 0.00 | 0.00 | 0.00 | 52 | 1012.4 |
| 20260508143704 | 11 | 354 | 1.6 | 4.8 | 0.00 | 0.00 | 0.00 | 54 | 1012.4 |
| 20260508143201 | 11 | 330 | 0.0 | 3.2 | 0.00 | 0.00 | 0.00 | 56 | 1012.6 |
| 20260508142656 | 11 | 347 | 1.6 | 3.2 | 0.00 | 0.00 | 0.00 | 53 | 1012.5 |
| 20260508142154 | 10 | 326 | 0.0 | 1.6 | 0.00 | 0.00 | 0.00 | 56 | 1012.5 |
| 20260508141650 | 10 | 320 | 3.2 | 3.2 | 0.00 | 0.00 | 0.00 | 58 | 1012.3 |
| 20260508141148 | 10 | 329 | 1.6 | 3.2 | 0.00 | 0.00 | 0.00 | 60 | 1012.4 |
| 20260508140645 | 10 | 293 | 3.2 | 3.2 | 0.00 | 0.00 | 0.00 | 59 | 1012.5 |
| 20260508140142 | 10 | 278 | 3.2 | 4.8 | 0.00 | 0.00 | 0.00 | 60 | 1012.6 |
| 20260508135637 | 10 | 283 | 3.2 | 3.2 | 0.00 | 0.00 | 0.00 | 66 | 1012.5 |
| 20260508135133 | 10 | 171 | 1.6 | 3.2 | 0.00 | 0.00 | 0.00 | 71 | 1012.6 |
| 20260508134630 | 10 | 168 | 3.2 | 3.2 | 0.00 | 0.00 | 0.00 | 72 | 1012.5 |
| 20260508134127 | 10 | 142 | 0.0 | 1.6 | 0.00 | 0.00 | 0.00 | 72 | 1012.8 |
| 20260508133624 | 10 | 142 | 3.2 | 3.2 | 0.00 | 0.00 | 0.00 | 69 | 1012.8 |
| 20260508133121 | 10 | 143 | 0.0 | 0.0 | 0.00 | 0.00 | 0.00 | 70 | 1012.7 |
| 20260508132619 | 9 | 143 | 0.0 | 1.6 | 0.00 | 0.00 | 0.00 | 77 | 1012.8 |
| 20260508132115 | 10 | 133 | 0.0 | 1.6 | 0.00 | 0.00 | 0.00 | 74 | 1012.6 |
| 20260508131611 | 10 | 62 | 0.0 | 1.6 | 0.00 | 0.00 | 0.00 | 76 | 1012.5 |
| 20260508131108 | 9 | 62 | 0.0 | 3.2 | 0.00 | 0.00 | 0.00 | 77 | 1012.5 |
| 20260508130605 | 8 | 33 | 0.0 | 1.6 | 0.00 | 0.00 | 0.00 | 81 | 1012.7 |
| 20260508125557 | 8 | 122 | 3.2 | 4.8 | 0.00 | 0.00 | 0.00 | 83 | 1012.5 |
| 20260508125055 | 7 | 76 | 3.2 | 3.2 | 0.00 | 0.00 | 0.00 | 86 | 1012.5 |
| 20260508124553 | 7 | 100 | 3.2 | 4.8 | 0.00 | 0.00 | 0.00 | 85 | 1012.7 |
| 20260508124049 | 7 | 84 | 1.6 | 4.8 | 0.00 | 0.00 | 0.00 | 87 | 1012.5 |
| 20260508123548 | 7 | 77 | 1.6 | 3.2 | 0.00 | 0.00 | 0.00 | 86 | 1012.4 |
| 20260508123044 | 7 | 51 | 0.0 | 0.0 | 0.00 | 0.00 | 0.00 | 90 | 1012.4 |
| 20260508122541 | 7 | 58 | 1.6 | 1.6 | 0.00 | 0.00 | 0.00 | 90 | 1012.2 |
| 20260508122038 | 6 | 60 | 0.0 | 1.6 | 0.00 | 0.00 | 0.00 | 92 | 1012.4 |
| 20260508121537 | 6 | 87 | 1.6 | 3.2 | 0.00 | 0.00 | 0.00 | 93 | 1012.2 |
| 20260508121034 | 6 | 66 | 0.0 | 1.6 | 0.00 | 0.00 | 0.00 | 94 | 1012.3 |
| 20260508120531 | 5 | 60 | 0.0 | 0.0 | 0.00 | 0.00 | 0.00 | 96 | 1012.3 |
| 20260508120030 | 5 | 60 | 0.0 | 0.0 | 0.00 | 0.00 | 0.00 | 96 | 1012.2 |
| 20260508115527 | 5 | 59 | 0.0 | 0.0 | 0.00 | 0.00 | 0.00 | 98 | 1012.1 |
| 20260508115023 | 5 | 61 | 0.0 | 0.0 | 0.00 | 0.00 | 0.00 | 98 | 1012.2 |
| 20260508114520 | 5 | 61 | 0.0 | 0.0 | 0.00 | 0.00 | 0.00 | 97 | 1012.2 |
| 20260508114016 | 5 | 62 | 0.0 | 0.0 | 0.00 | 0.00 | 0.00 | 98 | 1011.9 |
| 20260508113514 | 4 | 61 | 0.0 | 1.6 | 0.00 | 0.00 | 0.00 | 98 | 1011.8 |
| 20260508113012 | 4 | 56 | 0.0 | 0.0 | 0.00 | 0.00 | 0.00 | 98 | 1011.8 |
| 20260508112508 | 3 | 55 | 0.0 | 0.0 | 0.00 | 0.00 | 0.00 | 98 | 1011.8 |
| 20260508112005 | 3 | 56 | 0.0 | 0.0 | 0.00 | 0.00 | 0.00 | 98 | 1011.7 |
| 20260508111502 | 3 | 56 | 0.0 | 0.0 | 0.00 | 0.00 | 0.00 | 98 | 1011.5 |
| 20260508110959 | 3 | 56 | 0.0 | 0.0 | 0.00 | 0.00 | 0.00 | 98 | 1011.6 |
| 20260508110457 | 3 | 58 | 0.0 | 0.0 | 0.00 | 0.00 | 0.00 | 98 | 1011.6 |
| 20260508105956 | 3 | 58 | 0.0 | 0.0 | 0.00 | 0.00 | 0.00 | 98 | 1011.6 |
| 20260508105453 | 2 | 58 | 0.0 | 0.0 | 0.00 | 0.00 | 0.00 | 98 | 1011.6 |
| 20260508104950 | 2 | 58 | 0.0 | 0.0 | 0.00 | 0.00 | 0.00 | 98 | 1011.6 |
| 20260508104447 | 2 | 58 | 0.0 | 0.0 | 0.00 | 0.00 | 0.00 | 97 | 1011.4 |
| 20260508103944 | 2 | 58 | 0.0 | 0.0 | 0.00 | 0.00 | 0.00 | 97 | 1011.5 |
| 20260508103441 | 2 | 58 | 0.0 | 0.0 | 0.00 | 0.00 | 0.00 | 97 | 1011.5 |
| 20260508102938 | 2 | 58 | 0.0 | 0.0 | 0.00 | 0.00 | 0.00 | 97 | 1011.6 |
| 20260508102437 | 2 | 58 | 0.0 | 0.0 | 0.00 | 0.00 | 0.00 | 97 | 1011.5 |
| 20260508101933 | 2 | 58 | 0.0 | 0.0 | 0.00 | 0.00 | 0.00 | 97 | 1011.4 |
| 20260508101431 | 2 | 58 | 0.0 | 0.0 | 0.00 | 0.00 | 0.00 | 97 | 1011.6 |
| 20260508100928 | 2 | 58 | 0.0 | 0.0 | 0.00 | 0.00 | 0.00 | 97 | 1011.6 |
| 20260508100426 | 2 | 58 | 0.0 | 0.0 | 0.00 | 0.00 | 0.00 | 97 | 1011.6 |
| 20260508095922 | 2 | 58 | 0.0 | 0.0 | 0.00 | 0.00 | 0.00 | 97 | 1011.6 |
| 20260508095420 | 2 | 58 | 0.0 | 0.0 | 0.00 | 0.00 | 0.00 | 97 | 1011.5 |
| 20260508094916 | 2 | 58 | 0.0 | 0.0 | 0.00 | 0.00 | 0.00 | 97 | 1011.6 |
| 20260508094413 | 2 | 58 | 0.0 | 0.0 | 0.00 | 0.00 | 0.00 | 97 | 1011.4 |
| 20260508093910 | 2 | 58 | 0.0 | 0.0 | 0.00 | 0.00 | 0.00 | 97 | 1011.6 |
| 20260508093408 | 3 | 58 | 0.0 | 0.0 | 0.00 | 0.00 | 0.00 | 97 | 1011.5 |
| 20260508092905 | 3 | 58 | 0.0 | 0.0 | 0.00 | 0.00 | 0.00 | 97 | 1011.5 |
| 20260508092403 | 3 | 58 | 0.0 | 0.0 | 0.00 | 0.00 | 0.00 | 97 | 1011.5 |
| 20260508091901 | 3 | 58 | 0.0 | 0.0 | 0.00 | 0.00 | 0.00 | 97 | 1011.6 |
| 20260508091357 | 3 | 58 | 0.0 | 0.0 | 0.00 | 0.00 | 0.00 | 97 | 1011.6 |
| 20260508090855 | 3 | 58 | 0.0 | 0.0 | 0.00 | 0.00 | 0.00 | 97 | 1011.8 |
| 20260508090353 | 3 | 58 | 0.0 | 0.0 | 0.00 | 0.00 | 0.00 | 97 | 1011.7 |
| 20260508085848 | 3 | 58 | 0.0 | 0.0 | 0.00 | 0.00 | 0.00 | 97 | 1011.8 |
| 20260508085345 | 3 | 58 | 0.0 | 0.0 | 0.00 | 0.00 | 0.00 | 97 | 1011.9 |
| 20260508084842 | 3 | 58 | 0.0 | 0.0 | 0.00 | 0.00 | 0.00 | 97 | 1011.6 |
| 20260508084339 | 3 | 58 | 0.0 | 0.0 | 0.00 | 0.00 | 0.00 | 97 | 1011.6 |
| 20260508083837 | 3 | 58 | 0.0 | 0.0 | 0.00 | 0.00 | 0.00 | 97 | 1011.7 |
| 20260508083334 | 3 | 58 | 0.0 | 0.0 | 0.00 | 0.00 | 0.00 | 97 | 1011.6 |
| 20260508082833 | 3 | 58 | 0.0 | 0.0 | 0.00 | 0.00 | 0.00 | 97 | 1011.6 |
| 20260508082331 | 3 | 58 | 0.0 | 0.0 | 0.00 | 0.00 | 0.00 | 97 | 1011.6 |
| 20260508081828 | 3 | 58 | 0.0 | 0.0 | 0.00 | 0.00 | 0.00 | 97 | 1011.6 |
| 20260508081325 | 3 | 58 | 0.0 | 0.0 | 0.00 | 0.00 | 0.00 | 97 | 1011.8 |
| 20260508080823 | 3 | 58 | 0.0 | 0.0 | 0.00 | 0.00 | 0.00 | 97 | 1011.8 |
| 20260508080320 | 3 | 58 | 0.0 | 0.0 | 0.00 | 0.00 | 0.00 | 96 | 1011.9 |
| 20260508075817 | 4 | 58 | 0.0 | 0.0 | 0.00 | 0.00 | 0.00 | 96 | 1011.7 |
| 20260508075313 | 4 | 58 | 0.0 | 0.0 | 0.00 | 0.00 | 0.00 | 96 | 1011.8 |
| 20260508074811 | 4 | 58 | 0.0 | 0.0 | 0.00 | 0.00 | 0.00 | 96 | 1011.8 |
| 20260508074308 | 4 | 58 | 0.0 | 0.0 | 0.00 | 0.00 | 0.00 | 96 | 1011.9 |
| 20260508073805 | 4 | 58 | 0.0 | 0.0 | 0.00 | 0.00 | 0.00 | 96 | 1011.7 |
| 20260508073303 | 5 | 58 | 0.0 | 0.0 | 0.00 | 0.00 | 0.00 | 96 | 1011.7 |
| 20260508072759 | 5 | 58 | 0.0 | 0.0 | 0.00 | 0.00 | 0.00 | 96 | 1011.7 |
| 20260508072256 | 5 | 58 | 0.0 | 0.0 | 0.00 | 0.00 | 0.00 | 96 | 1011.6 |
| 20260508071753 | 5 | 58 | 0.0 | 0.0 | 0.00 | 0.00 | 0.00 | 96 | 1011.7 |
| 20260508071252 | 5 | 58 | 0.0 | 0.0 | 0.00 | 0.00 | 0.00 | 96 | 1011.7 |
| 20260508070749 | 5 | 58 | 0.0 | 0.0 | 0.00 | 0.00 | 0.00 | 96 | 1011.8 |
| 20260508070247 | 5 | 57 | 0.0 | 0.0 | 0.00 | 0.00 | 0.00 | 96 | 1011.8 |
| 20260508065744 | 5 | 58 | 0.0 | 0.0 | 0.00 | 0.00 | 0.00 | 96 | 1012.1 |
| 20260508065242 | 5 | 58 | 0.0 | 0.0 | 0.00 | 0.00 | 0.00 | 96 | 1011.8 |
| 20260508064740 | 5 | 58 | 0.0 | 0.0 | 0.00 | 0.00 | 0.00 | 96 | 1012.1 |
| 20260508064238 | 5 | 58 | 0.0 | 0.0 | 0.00 | 0.00 | 0.00 | 96 | 1012.1 |
| 20260508063735 | 5 | 58 | 0.0 | 0.0 | 0.00 | 0.00 | 0.00 | 96 | 1012.1 |
| 20260508063233 | 5 | 58 | 0.0 | 0.0 | 0.00 | 0.00 | 0.00 | 96 | 1012.1 |
| 20260508062730 | 5 | 58 | 0.0 | 0.0 | 0.00 | 0.00 | 0.00 | 95 | 1012.1 |
| 20260508062227 | 5 | 58 | 0.0 | 0.0 | 0.00 | 0.00 | 0.00 | 95 | 1011.9 |
| 20260508061724 | 5 | 58 | 0.0 | 0.0 | 0.00 | 0.00 | 0.00 | 95 | 1011.9 |
| 20260508061221 | 5 | 58 | 0.0 | 0.0 | 0.00 | 0.00 | 0.00 | 95 | 1012.2 |
| 20260508060717 | 5 | 58 | 0.0 | 0.0 | 0.00 | 0.00 | 0.00 | 95 | 1011.9 |
| 20260508060215 | 5 | 58 | 0.0 | 0.0 | 0.00 | 0.00 | 0.00 | 95 | 1012.4 |
| 20260508055710 | 5 | 58 | 0.0 | 0.0 | 0.00 | 0.00 | 0.00 | 95 | 1011.9 |
| 20260508055208 | 5 | 58 | 0.0 | 0.0 | 0.00 | 0.00 | 0.00 | 95 | 1012.2 |
| 20260508054704 | 5 | 58 | 0.0 | 0.0 | 0.00 | 0.00 | 0.00 | 95 | 1012.3 |
| 20260508054202 | 5 | 58 | 0.0 | 0.0 | 0.00 | 0.00 | 0.00 | 95 | 1012.3 |
| 20260508053658 | 5 | 58 | 0.0 | 0.0 | 0.00 | 0.00 | 0.00 | 95 | 1012.3 |
| 20260508053156 | 5 | 58 | 0.0 | 0.0 | 0.00 | 0.00 | 0.00 | 95 | 1012.3 |
| 20260508052653 | 5 | 58 | 0.0 | 0.0 | 0.00 | 0.00 | 0.00 | 94 | 1012.4 |
| 20260508052150 | 5 | 59 | 0.0 | 0.0 | 0.00 | 0.00 | 0.00 | 94 | 1012.3 |
| 20260508051646 | 5 | 59 | 0.0 | 0.0 | 0.00 | 0.00 | 0.00 | 94 | 1012.2 |
| 20260508051142 | 5 | 59 | 0.0 | 0.0 | 0.00 | 0.00 | 0.00 | 94 | 1012.1 |
| 20260508050638 | 5 | 59 | 0.0 | 0.0 | 0.00 | 0.00 | 0.00 | 94 | 1012.3 |
| 20260508050136 | 5 | 59 | 0.0 | 0.0 | 0.00 | 0.00 | 0.00 | 93 | 1012.2 |
| 20260508045631 | 5 | 60 | 0.0 | 0.0 | 0.00 | 0.00 | 0.00 | 93 | 1012.3 |
| 20260508045130 | 5 | 60 | 0.0 | 0.0 | 0.00 | 0.00 | 0.00 | 93 | 1012.1 |
| 20260508044626 | 5 | 60 | 0.0 | 0.0 | 0.00 | 0.00 | 0.00 | 93 | 1012.1 |
| 20260508044123 | 5 | 60 | 0.0 | 0.0 | 0.00 | 0.00 | 0.00 | 93 | 1012.2 |
| 20260508043619 | 5 | 70 | 0.0 | 1.6 | 0.00 | 0.00 | 0.00 | 93 | 1012.2 |
| 20260508043117 | 5 | 90 | 3.2 | 3.2 | 0.00 | 0.00 | 0.00 | 92 | 1012.1 |
| 20260508042614 | 5 | 48 | 0.0 | 0.0 | 0.00 | 0.00 | 0.00 | 92 | 1012.2 |
| 20260508042111 | 5 | 82 | 3.2 | 3.2 | 0.00 | 0.00 | 0.00 | 92 | 1012.1 |
| 20260508041607 | 5 | 47 | 0.0 | 0.0 | 0.00 | 0.00 | 0.00 | 92 | 1012.3 |
| 20260508041103 | 5 | 70 | 0.0 | 0.0 | 0.00 | 0.00 | 0.00 | 91 | 1012.1 |
| 20260508040600 | 5 | 74 | 0.0 | 0.0 | 0.00 | 0.00 | 0.00 | 91 | 1012.2 |
| 20260508040058 | 5 | 64 | 0.0 | 0.0 | 0.00 | 0.00 | 0.00 | 90 | 1012.3 |
| 20260508035555 | 5 | 65 | 0.0 | 0.0 | 0.00 | 0.18 | 0.18 | 90 | 1012.1 |
| 20260508035052 | 5 | 20 | 0.0 | 0.0 | 0.13 | 0.18 | 0.18 | 89 | 1012.3 |
| 20260508034549 | 5 | 61 | 1.6 | 1.6 | 0.30 | 0.18 | 0.18 | 87 | 1012.2 |
| 20260508034046 | 6 | 59 | 1.6 | 3.2 | 0.30 | 0.15 | 0.15 | 84 | 1012.4 |
| 20260508033544 | 6 | 10 | 0.0 | 3.2 | 0.61 | 0.13 | 0.13 | 80 | 1012.6 |
| 20260508033042 | 6 | 311 | 4.8 | 9.7 | 0.66 | 0.10 | 0.10 | 76 | 1012.5 |
| 20260508032538 | 7 | 289 | 4.8 | 9.7 | 0.18 | 0.03 | 0.03 | 72 | 1012.3 |
| 20260508032036 | 8 | 285 | 11.3 | 14.5 | 0.00 | 0.00 | 0.00 | 64 | 1012.5 |
| 20260508031533 | 8 | 347 | 3.2 | 6.4 | 0.00 | 0.00 | 0.00 | 60 | 1012.4 |
| 20260508031028 | 8 | 343 | 3.2 | 3.2 | 0.00 | 0.00 | 0.00 | 62 | 1012.3 |
| 20260508030525 | 8 | 49 | 0.0 | 0.0 | 0.00 | 0.00 | 0.00 | 59 | 1011.9 |
| 20260508030024 | 8 | 50 | 0.0 | 1.6 | 0.00 | 0.00 | 0.00 | 57 | 1012.1 |
| 20260508025519 | 8 | 50 | 1.6 | 3.2 | 0.00 | 0.00 | 0.00 | 57 | 1011.9 |
| 20260508025016 | 8 | 10 | 1.6 | 1.6 | 0.00 | 0.00 | 0.00 | 57 | 1012.2 |
| 20260508024512 | 8 | 8 | 0.0 | 0.0 | 0.00 | 0.00 | 0.00 | 56 | 1012.3 |
| 20260508024009 | 8 | 8 | 0.0 | 0.0 | 0.00 | 0.00 | 0.00 | 56 | 1012.2 |
| 20260508023506 | 8 | 8 | 0.0 | 0.0 | 0.00 | 0.00 | 0.00 | 54 | 1012.2 |
| 20260508023003 | 8 | 8 | 0.0 | 0.0 | 0.00 | 0.00 | 0.00 | 55 | 1012.2 |
| 20260508022459 | 9 | 8 | 0.0 | 0.0 | 0.00 | 0.00 | 0.00 | 55 | 1012.3 |
| 20260508021955 | 9 | 8 | 0.0 | 0.0 | 0.00 | 0.00 | 0.00 | 54 | 1012.3 |
| 20260508021452 | 9 | 7 | 0.0 | 0.0 | 0.00 | 0.00 | 0.00 | 55 | 1012.3 |
| 20260508020948 | 9 | 21 | 1.6 | 3.2 | 0.00 | 0.00 | 0.00 | 52 | 1012.1 |
| 20260508020446 | 9 | 359 | 1.6 | 3.2 | 0.00 | 0.00 | 0.00 | 52 | 1012.1 |
| 20260508015942 | 10 | 13 | 3.2 | 3.2 | 0.00 | 0.00 | 0.00 | 50 | 1011.8 |
| 20260508015440 | 10 | 329 | 4.8 | 6.4 | 0.00 | 0.00 | 0.00 | 49 | 1012.2 |
| 20260508014937 | 10 | 290 | 3.2 | 6.4 | 0.00 | 0.00 | 0.00 | 48 | 1012.1 |
| 20260508014434 | 10 | 304 | 4.8 | 6.4 | 0.00 | 0.00 | 0.00 | 48 | 1012.1 |
| 20260508013929 | 10 | 292 | 12.9 | 17.7 | 0.00 | 0.00 | 0.00 | 47 | 1011.8 |
| 20260508013426 | 10 | 292 | 4.8 | 4.8 | 0.00 | 0.00 | 0.00 | 51 | 1011.9 |
| 20260508012923 | 10 | 303 | 0.0 | 1.6 | 0.00 | 0.00 | 0.00 | 50 | 1011.8 |
| 20260508012420 | 10 | 303 | 1.6 | 1.6 | 0.00 | 0.00 | 0.00 | 48 | 1011.9 |
| 20260508011918 | 10 | 303 | 0.0 | 1.6 | 0.00 | 0.00 | 0.00 | 49 | 1011.7 |
| 20260508011416 | 10 | 303 | 1.6 | 1.6 | 0.00 | 0.00 | 0.00 | 48 | 1011.8 |
| 20260508010912 | 10 | 303 | 1.6 | 3.2 | 0.00 | 0.00 | 0.00 | 47 | 1011.7 |
| 20260508010410 | 10 | 303 | 3.2 | 3.2 | 0.00 | 0.00 | 0.00 | 47 | 1011.5 |
| 20260508005907 | 10 | 304 | 1.6 | 3.2 | 0.00 | 0.00 | 0.00 | 46 | 1011.5 |
| 20260508005403 | 10 | 304 | 1.6 | 1.6 | 0.00 | 0.00 | 0.00 | 47 | 1011.7 |
| 20260508004900 | 10 | 297 | 3.2 | 4.8 | 0.00 | 0.00 | 0.00 | 45 | 1011.4 |
| 20260508004356 | 10 | 293 | 3.2 | 4.8 | 0.00 | 0.00 | 0.00 | 45 | 1011.6 |
| 20260508003853 | 10 | 302 | 4.8 | 9.7 | 0.00 | 0.00 | 0.00 | 44 | 1011.5 |
| 20260508003349 | 10 | 296 | 6.4 | 6.4 | 0.00 | 0.00 | 0.00 | 45 | 1011.6 |
| 20260508002847 | 10 | 256 | 6.4 | 12.9 | 0.00 | 0.00 | 0.00 | 44 | 1011.4 |
| 20260508002343 | 11 | 264 | 9.7 | 29.0 | 0.00 | 0.00 | 0.00 | 46 | 1011.6 |
| 20260508001840 | 11 | 294 | 4.8 | 6.4 | 0.00 | 0.00 | 0.00 | 43 | 1011.5 |
| 20260508001336 | 11 | 292 | 6.4 | 11.3 | 0.00 | 0.00 | 0.00 | 42 | 1011.5 |
| 20260508000832 | 11 | 276 | 6.4 | 6.4 | 0.00 | 0.00 | 0.00 | 43 | 1011.2 |
| 20260508000328 | 11 | 300 | 4.8 | 9.7 | 0.00 | 0.00 | 0.00 | 42 | 1011.3 |
| 20260507235825 | 11 | 295 | 3.2 | 9.7 | 0.00 | 0.00 | 0.00 | 41 | 1011.2 |
| 20260507235323 | 11 | 287 | 8.0 | 9.7 | 0.00 | 0.00 | 0.00 | 42 | 1011.1 |
| 20260507234820 | 11 | 268 | 4.8 | 9.7 | 0.00 | 0.00 | 0.00 | 43 | 1011.4 |
| 20260507234316 | 11 | 310 | 6.4 | 9.7 | 0.00 | 0.00 | 0.00 | 41 | 1011.2 |
| 20260507233812 | 11 | 311 | 3.2 | 4.8 | 0.00 | 0.00 | 0.00 | 42 | 1011.4 |
| 20260507233310 | 11 | 300 | 6.4 | 9.7 | 0.00 | 0.00 | 0.00 | 42 | 1011.3 |
| 20260507232809 | 11 | 280 | 6.4 | 14.5 | 0.00 | 0.00 | 0.00 | 40 | 1011.4 |
| 20260507232306 | 11 | 280 | 8.0 | 16.1 | 0.00 | 0.00 | 0.00 | 41 | 1011.5 |
| 20260507231801 | 11 | 277 | 14.5 | 22.5 | 0.00 | 0.00 | 0.00 | 41 | 1011.5 |
| 20260507231258 | 12 | 285 | 8.0 | 14.5 | 0.00 | 0.00 | 0.00 | 40 | 1011.5 |
| 20260507230754 | 11 | 260 | 8.0 | 11.3 | 0.00 | 0.00 | 0.00 | 40 | 1011.5 |
| 20260507230252 | 11 | 304 | 11.3 | 12.9 | 0.00 | 0.00 | 0.00 | 40 | 1011.4 |
| 20260507225752 | 11 | 288 | 11.3 | 16.1 | 0.00 | 0.00 | 0.00 | 39 | 1011.5 |
| 20260507225248 | 11 | 251 | 14.5 | 17.7 | 0.00 | 0.00 | 0.00 | 40 | 1011.5 |
| 20260507224744 | 11 | 250 | 11.3 | 24.1 | 0.00 | 0.00 | 0.00 | 41 | 1011.6 |
| 20260507224241 | 11 | 276 | 14.5 | 22.5 | 0.00 | 0.00 | 0.00 | 39 | 1011.5 |
| 20260507223737 | 12 | 269 | 11.3 | 12.9 | 0.00 | 0.00 | 0.00 | 40 | 1011.6 |
| 20260507223234 | 12 | 288 | 6.4 | 14.5 | 0.00 | 0.00 | 0.00 | 41 | 1011.6 |
| 20260507222731 | 11 | 278 | 6.4 | 9.7 | 0.00 | 0.00 | 0.00 | 41 | 1011.7 |
| 20260507222227 | 11 | 297 | 11.3 | 14.5 | 0.00 | 0.00 | 0.00 | 40 | 1011.6 |
| 20260507221724 | 11 | 288 | 14.5 | 17.7 | 0.00 | 0.00 | 0.00 | 40 | 1011.5 |
| 20260507221220 | 11 | 299 | 11.3 | 16.1 | 0.00 | 0.00 | 0.00 | 40 | 1011.7 |
| 20260507220717 | 11 | 272 | 9.7 | 17.7 | 0.00 | 0.00 | 0.00 | 40 | 1011.6 |